Tracking 30986 objects as of 9-Jul-2025
HD Live streaming from Space Station
objects crossing your sky now

GB 2

Track GB 2 now!
10-day predictions
GB 2 is classified as:


NORAD ID: 14144
Int'l Code: 1983-056D
Perigee: 428.3 km
Apogee: 1,544.1 km
Inclination: 63.3 °
Period: 104.7 minutes
Semi major axis: 7357 km
RCS: Unknown
Launch date: June 9, 1983
Source: United States (US)
Launch site: AIR FORCE WESTERN TEST RANGE (AFWTR)
Your satellite tracking list
Your tracking list is empty




NASA's NSSDC Master Catalog

Two Line Element Set (TLE):
1 14144U 83056D   25189.87977949  .00002131  00000-0  24844-3 0  9993
2 14144  63.3083 122.3622 0758268 126.0649 241.3091 13.75727200308668
Source of the keplerian elements: McCants